Weather History for Thief River Falls, MN

Change the Weather History Date:

Thursday, May 30, 2013

  Actual Average Record
Temperature  
Mean Temperature 67 °F -  
Max Temperature 75 °F 66 °F 91 °F (1986)
Min Temperature 59 °F 46 °F 32 °F (1981)
Cooling Degree Days 2    
Growing Degree Days 17 (Base 50)    
Moisture  
Dew Point 59 °F    
Average Humidity 81    
Maximum Humidity 94    
Minimum Humidity 53    
Precipitation  
Precipitation 0.63 in - - ()
Sea Level Pressure  
Sea Level Pressure 29.52 in    
Wind  
Wind Speed 10 mph (East)    
Max Wind Speed 20 mph    
Max Gust Speed 23 mph    
Visibility 9 miles    
Events      
Averages and records for this station are not official NWS values.
T = Trace of Precipitation, MM = Missing Value Source: NWS Daily Summary

Daily Weather History Graph

Daily Weather History Graph

Search for Another Location

Airport:

Trip Planner

Search our weather history database for the weather conditions in past years. The results will help you decide how hot, cold, wet, or windy it might be!

Date:

Astronomy

May. 30, 2013 Rise Set
Actual Time 5:30 AM CDT 9:14 PM CDT
Civil Twilight 4:50 AM CDT 9:54 PM CDT
Nautical Twilight 3:57 AM CDT 10:48 PM CDT
Astronomical Twilight 2:39 AM CDT 12:07 AM CDT
Moon 12:59 AM CDT (5/30) 11:58 AM CDT (5/30)
Length of Visible Light 17h 03m
Length of Day
15h 44m
Waning Gibbous, 62% of the Moon is Illuminated
May 30
Waning Gibbous
May 31
Last Quarter
Jun 8
New
Jun 16
First Quarter
Jun 23
Full

Hourly Weather History & Observations

Time (CDT) Temp. Dew Point Humidity Pressure Visibility Wind Dir Wind Speed Gust Speed Precip Events Conditions
12:15 AM 62.6 °F 57.2 °F 82% 29.66 in 10.0 mi ENE 6.9 mph - N/A   Overcast
12:35 AM 62.6 °F 57.2 °F 82% 29.66 in 10.0 mi ENE 9.2 mph - N/A   Mostly Cloudy
12:55 AM 60.8 °F 55.4 °F 82% 29.65 in 10.0 mi ENE 9.2 mph - N/A   Overcast
1:15 AM 60.8 °F 55.4 °F 82% 29.64 in 10.0 mi ENE 9.2 mph - 0.03 in   Overcast
1:35 AM 60.8 °F 55.4 °F 82% 29.63 in 10.0 mi ENE 9.2 mph - 0.06 in   Overcast
1:55 AM 59.0 °F 55.4 °F 88% 29.63 in 10.0 mi NE 8.1 mph - 0.08 in   Overcast
2:15 AM 59.0 °F 55.4 °F 88% 29.62 in 10.0 mi NE 11.5 mph - 0.01 in   Overcast
2:35 AM 59.0 °F 55.4 °F 88% 29.63 in 10.0 mi ENE 10.4 mph - 0.02 in   Overcast
2:55 AM 59.0 °F 55.4 °F 88% 29.62 in 10.0 mi NE 9.2 mph - 0.02 in   Mostly Cloudy
3:15 AM 59.0 °F 55.4 °F 88% 29.61 in 10.0 mi NE 8.1 mph - N/A   Overcast
3:35 AM 60.8 °F 55.4 °F 82% 29.60 in 7.0 mi NE 10.4 mph - 0.08 in   Overcast
3:55 AM 59.0 °F 55.4 °F 88% 29.58 in 10.0 mi NNE 9.2 mph - 0.09 in   Overcast
4:15 AM 60.8 °F 57.2 °F 88% 29.58 in 10.0 mi NE 5.8 mph - N/A   Overcast
4:35 AM 60.8 °F 57.2 °F 88% 29.57 in 9.0 mi NE 5.8 mph - 0.04 in   Overcast
4:55 AM 60.8 °F 57.2 °F 88% 29.57 in 10.0 mi ENE 9.2 mph - 0.04 in   Overcast
5:15 AM 60.8 °F 57.2 °F 88% 29.56 in 10.0 mi East 12.7 mph 16.1 mph N/A   Overcast
5:35 AM 60.8 °F 57.2 °F 88% 29.56 in 10.0 mi East 11.5 mph - N/A   Overcast
5:55 AM 60.8 °F 57.2 °F 88% 29.56 in 8.0 mi East 12.7 mph - 0.01 in   Overcast
6:15 AM 60.8 °F 57.2 °F 88% 29.55 in 7.0 mi East 12.7 mph - 0.01 in   Overcast
6:35 AM 60.8 °F 57.2 °F 88% 29.56 in 5.0 mi East 13.8 mph 17.3 mph 0.03 in   Overcast
6:55 AM 60.8 °F 57.2 °F 88% 29.55 in 5.0 mi East 11.5 mph - 0.05 in   Overcast
7:15 AM 60.8 °F 57.2 °F 88% 29.55 in 4.0 mi East 12.7 mph - 0.05 in   Overcast
7:35 AM 60.8 °F 57.2 °F 88% 29.54 in 5.0 mi East 12.7 mph 16.1 mph 0.09 in   Overcast
7:55 AM 60.8 °F 59.0 °F 94% 29.54 in 6.0 mi East 10.4 mph - 0.18 in   Overcast
8:15 AM 60.8 °F 59.0 °F 94% 29.54 in 3.0 mi East 8.1 mph - 0.12 in   Overcast
8:35 AM 60.8 °F 59.0 °F 94% 29.55 in 10.0 mi East 10.4 mph - 0.12 in   Overcast
8:55 AM 62.6 °F 59.0 °F 88% 29.55 in 9.0 mi East 12.7 mph - 0.12 in   Overcast
9:15 AM 62.6 °F 60.8 °F 94% 29.54 in 10.0 mi East 11.5 mph - N/A   Overcast
9:35 AM 62.6 °F 60.8 °F 94% 29.53 in 10.0 mi East 11.5 mph - N/A   Overcast
9:55 AM 62.6 °F 60.8 °F 94% 29.52 in 10.0 mi East 10.4 mph - N/A   Overcast
10:15 AM 64.4 °F 60.8 °F 88% 29.52 in 10.0 mi East 11.5 mph - N/A   Overcast
10:35 AM 64.4 °F 60.8 °F 88% 29.52 in 10.0 mi East 12.7 mph - N/A   Overcast
10:55 AM 64.4 °F 60.8 °F 88% 29.51 in 10.0 mi East 13.8 mph - N/A   Overcast
11:15 AM 64.4 °F 60.8 °F 88% 29.51 in 10.0 mi East 12.7 mph 18.4 mph N/A   Overcast
11:35 AM 64.4 °F 60.8 °F 88% 29.51 in 10.0 mi East 15.0 mph 19.6 mph N/A   Overcast
11:55 AM 64.4 °F 60.8 °F 88% 29.50 in 5.0 mi East 13.8 mph - 0.01 in   Overcast
12:15 PM 64.4 °F 60.8 °F 88% 29.50 in 10.0 mi East 15.0 mph 20.7 mph 0.01 in   Overcast
12:35 PM 64.4 °F 60.8 °F 88% 29.49 in 10.0 mi East 15.0 mph 18.4 mph 0.01 in   Overcast
12:55 PM 64.4 °F 62.6 °F 94% 29.50 in 10.0 mi East 13.8 mph 23.0 mph 0.01 in   Overcast
1:15 PM 64.4 °F 62.6 °F 94% 29.49 in 9.0 mi East 13.8 mph 18.4 mph 0.01 in   Overcast
1:35 PM 68.0 °F 62.6 °F 83% 29.48 in 10.0 mi East 18.4 mph 23.0 mph 0.01 in   Overcast
1:55 PM 68.0 °F 62.6 °F 83% 29.48 in 10.0 mi East 19.6 mph - 0.01 in   Overcast
2:15 PM 69.8 °F 64.4 °F 83% 29.47 in 10.0 mi East 16.1 mph - N/A   Mostly Cloudy
2:35 PM 71.6 °F 64.4 °F 78% 29.46 in 10.0 mi East 17.3 mph 20.7 mph N/A   Mostly Cloudy
2:55 PM 69.8 °F 64.4 °F 83% 29.46 in 5.0 mi ESE 15.0 mph 20.7 mph 0.01 in   Overcast
3:15 PM 71.6 °F 66.2 °F 83% 29.46 in 10.0 mi ESE 16.1 mph - N/A   Mostly Cloudy
3:35 PM 71.6 °F 64.4 °F 78% 29.46 in 10.0 mi East 13.8 mph - N/A   Mostly Cloudy
3:55 PM 71.6 °F 64.4 °F 78% 29.46 in 10.0 mi ESE 12.7 mph - N/A   Overcast
4:15 PM 73.4 °F 64.4 °F 73% 29.46 in 10.0 mi SE 9.2 mph - N/A   Mostly Cloudy
4:35 PM 75.2 °F 62.6 °F 65% 29.45 in 10.0 mi South 10.4 mph - N/A   Scattered Clouds
4:55 PM 75.2 °F 60.8 °F 61% 29.45 in 10.0 mi SSE 15.0 mph 19.6 mph N/A   Partly Cloudy
5:15 PM 75.2 °F 60.8 °F 61% 29.44 in 10.0 mi SE 15.0 mph - N/A   Scattered Clouds
5:35 PM 75.2 °F 60.8 °F 61% 29.44 in 10.0 mi SSE 15.0 mph - N/A   Partly Cloudy
5:55 PM 75.2 °F 60.8 °F 61% 29.44 in 10.0 mi South 16.1 mph - N/A   Clear
6:15 PM 75.2 °F 59.0 °F 57% 29.44 in 10.0 mi SSE 16.1 mph 19.6 mph N/A   Clear
6:35 PM 75.2 °F 59.0 °F 57% 29.45 in 10.0 mi SSE 13.8 mph - N/A   Clear
6:55 PM 75.2 °F 57.2 °F 53% 29.44 in 10.0 mi SE 12.7 mph - N/A   Clear
7:15 PM 75.2 °F 57.2 °F 53% 29.45 in 10.0 mi SE 8.1 mph - N/A   Clear
7:35 PM 75.2 °F 60.8 °F 61% 29.45 in 10.0 mi SE 5.8 mph - N/A   Partly Cloudy
7:55 PM 73.4 °F 60.8 °F 65% 29.46 in 10.0 mi East 5.8 mph - N/A   Mostly Cloudy
8:15 PM 73.4 °F 60.8 °F 65% 29.46 in 10.0 mi East 5.8 mph - N/A   Mostly Cloudy
8:35 PM 71.6 °F 60.8 °F 69% 29.46 in 10.0 mi East 6.9 mph - N/A   Scattered Clouds
8:55 PM 71.6 °F 59.0 °F 64% 29.46 in 10.0 mi ESE 9.2 mph - N/A   Mostly Cloudy
9:15 PM 71.6 °F 60.8 °F 69% 29.47 in 10.0 mi SE 9.2 mph - N/A   Mostly Cloudy
9:35 PM 69.8 °F 59.0 °F 68% 29.48 in 10.0 mi South 8.1 mph - N/A   Mostly Cloudy
9:55 PM 66.2 °F 59.0 °F 78% 29.49 in 10.0 mi SE 4.6 mph - N/A   Overcast
10:15 PM 66.2 °F 59.0 °F 78% 29.48 in 10.0 mi SE 3.5 mph - N/A   Overcast
10:35 PM 66.2 °F 59.0 °F 78% 29.48 in 10.0 mi Calm Calm - N/A   Partly Cloudy
10:55 PM 66.2 °F 59.0 °F 78% 29.47 in 10.0 mi ENE 4.6 mph - N/A   Partly Cloudy
11:15 PM 66.2 °F 60.8 °F 83% 29.47 in 10.0 mi ENE 4.6 mph - N/A   Mostly Cloudy
11:35 PM 66.2 °F 60.8 °F 83% 29.47 in 10.0 mi ENE 5.8 mph - N/A   Overcast
11:55 PM 66.2 °F 59.0 °F 78% 29.46 in 10.0 mi ENE 6.9 mph - N/A   Overcast